UPS9852 KRDU-KSDF

Flight info

Callsign UPS9852
Flight time 1h 7m
Altitude 32000
Route SHPRD4 SHPRD HMV LAFOX LEDDL1
Aircraft MD11/H-SDE1E2E3FGHIJ2J3J4J5M1RWXY/LB1D1

Departure

Time 2026-04-29 21:56
Airport Raleigh-Durham International Airport (KRDU)

Arrival

Time 2026-04-29 23:03
Airport Louisville Muhammad Ali International Airport (KSDF)
Time Latitude Longitude Altitude Speed Heading
2026-04-29 21:34 35.88796 -78.78008 399 ft 0 kts 177°
2026-04-29 21:46 35.88802 -78.78009 399 ft 4 kts 177°
2026-04-29 21:47 35.88829 -78.78011 397 ft 4 kts 177°
2026-04-29 21:47 35.88856 -78.78012 398 ft 4 kts 177°
2026-04-29 21:47 35.88878 -78.78014 397 ft 4 kts 191°
2026-04-29 21:47 35.88898 -78.78003 397 ft 4 kts 229°
2026-04-29 21:48 35.88914 -78.77977 399 ft 3 kts 230°
2026-04-29 21:48 35.88917 -78.77973 396 ft 0 kts 229°
2026-04-29 21:50 35.88899 -78.77998 397 ft 7 kts 227°
2026-04-29 21:51 35.88856 -78.78052 395 ft 11 kts 225°
2026-04-29 21:51 35.88795 -78.78127 397 ft 14 kts 225°
2026-04-29 21:51 35.88725 -78.78243 395 ft 2 kts 285°
2026-04-29 21:52 35.88734 -78.78255 398 ft 2 kts 311°
2026-04-29 21:52 35.88749 -78.78262 397 ft 4 kts 346°
2026-04-29 21:52 35.88782 -78.78248 398 ft 7 kts 34°
2026-04-29 21:52 35.88830 -78.78189 394 ft 12 kts 45°
2026-04-29 21:53 35.88904 -78.78097 394 ft 18 kts 45°
2026-04-29 21:53 35.88985 -78.77961 397 ft 22 kts 71°
2026-04-29 21:53 35.89066 -78.77819 397 ft 19 kts 46°
2026-04-29 21:53 35.89155 -78.77707 397 ft 17 kts 45°
2026-04-29 21:54 35.89219 -78.77648 397 ft 4 kts
2026-04-29 21:54 35.89245 -78.77664 399 ft 5 kts 328°
2026-04-29 21:54 35.89273 -78.77694 399 ft 5 kts 316°
2026-04-29 21:54 35.89310 -78.77738 397 ft 10 kts 315°
2026-04-29 21:55 35.89356 -78.77797 396 ft 6 kts 304°
2026-04-29 21:55 35.89352 -78.77840 397 ft 6 kts 242°
2026-04-29 21:55 35.89308 -78.77900 396 ft 13 kts 224°
2026-04-29 21:55 35.89136 -78.78109 391 ft 75 kts 225°
2026-04-29 21:56 35.88548 -78.78836 397 ft 160 kts 225°
2026-04-29 21:56 35.87683 -78.79903 1069 ft 173 kts 225°
2026-04-29 21:56 35.86849 -78.80924 2336 ft 167 kts 225°
2026-04-29 21:56 35.86007 -78.81956 3368 ft 174 kts 226°
2026-04-29 21:57 35.85085 -78.83043 4107 ft 197 kts 225°
2026-04-29 21:57 35.84034 -78.84349 4399 ft 229 kts 234°
2026-04-29 21:57 35.83365 -78.86214 4756 ft 259 kts 260°
2026-04-29 21:57 35.83385 -78.88538 5591 ft 270 kts 276°
2026-04-29 21:58 35.83632 -78.90765 6958 ft 263 kts 278°
2026-04-29 21:58 35.83854 -78.92972 8292 ft 257 kts 277°
2026-04-29 21:58 35.84012 -78.95171 9439 ft 259 kts 275°
2026-04-29 21:58 35.84110 -78.97405 10326 ft 269 kts 274°
2026-04-29 21:59 35.84168 -78.99868 10457 ft 305 kts 272°
2026-04-29 21:59 35.84184 -79.02617 10751 ft 331 kts 271°
2026-04-29 21:59 35.84163 -79.05479 11709 ft 336 kts 270°
2026-04-29 21:59 35.84117 -79.08374 12699 ft 340 kts 270°
2026-04-29 22:00 35.84058 -79.11308 13616 ft 345 kts 270°
2026-04-29 22:00 35.83988 -79.14281 14415 ft 350 kts 270°
2026-04-29 22:00 35.83912 -79.17296 15197 ft 354 kts 270°
2026-04-29 22:00 35.83832 -79.20341 15963 ft 358 kts 270°
2026-04-29 22:01 35.83749 -79.23435 16717 ft 363 kts 269°
2026-04-29 22:01 35.83663 -79.26567 17446 ft 368 kts 269°
2026-04-29 22:01 35.83548 -79.29725 18137 ft 372 kts 268°
2026-04-29 22:01 35.83349 -79.32932 18784 ft 376 kts 266°
2026-04-29 22:02 35.83111 -79.36144 19464 ft 377 kts 266°
2026-04-29 22:02 35.82862 -79.39360 20132 ft 378 kts 266°
2026-04-29 22:02 35.82612 -79.42592 20813 ft 379 kts 266°
2026-04-29 22:02 35.82362 -79.45835 21531 ft 381 kts 266°
2026-04-29 22:03 35.82114 -79.49086 22251 ft 382 kts 266°
2026-04-29 22:03 35.81826 -79.52342 22959 ft 384 kts 264°
2026-04-29 22:03 35.81380 -79.55595 23653 ft 386 kts 262°
2026-04-29 22:03 35.80850 -79.58852 24269 ft 389 kts 261°
2026-04-29 22:04 35.80289 -79.62119 24882 ft 391 kts 260°
2026-04-29 22:04 35.79721 -79.65407 25443 ft 394 kts 260°
2026-04-29 22:04 35.79150 -79.68721 26032 ft 397 kts 260°
2026-04-29 22:04 35.78579 -79.72059 26651 ft 400 kts 260°
2026-04-29 22:05 35.78006 -79.75429 27236 ft 403 kts 260°
2026-04-29 22:05 35.77432 -79.78810 27848 ft 405 kts 260°
2026-04-29 22:05 35.76273 -79.85627 29113 ft 408 kts 261°
2026-04-29 22:06 35.75690 -79.89056 29684 ft 411 kts 261°
2026-04-29 22:06 35.75102 -79.92504 30178 ft 413 kts 261°
2026-04-29 22:06 35.74510 -79.95974 30629 ft 415 kts 261°
2026-04-29 22:06 35.73916 -79.99445 30984 ft 413 kts 261°
2026-04-29 22:07 35.73324 -80.02892 31355 ft 411 kts 261°
2026-04-29 22:07 35.72735 -80.06318 31720 ft 409 kts 261°
2026-04-29 22:07 35.72154 -80.09695 31947 ft 408 kts 261°
2026-04-29 22:08 35.70979 -80.16506 31988 ft 406 kts 261°
2026-04-29 22:08 35.69808 -80.23271 31992 ft 403 kts 261°
2026-04-29 22:09 35.68639 -80.30004 31991 ft 402 kts 261°
2026-04-29 22:09 35.67468 -80.36727 31993 ft 402 kts 261°
2026-04-29 22:10 35.66778 -80.43513 31980 ft 399 kts 271°
2026-04-29 22:10 35.67556 -80.50235 31982 ft 399 kts 285°
2026-04-29 22:11 35.69810 -80.56497 31985 ft 402 kts 296°
2026-04-29 22:11 35.72704 -80.62383 31981 ft 402 kts 297°
2026-04-29 22:12 35.75614 -80.68256 31992 ft 402 kts 297°
2026-04-29 22:12 35.78471 -80.74159 31995 ft 401 kts 296°
2026-04-29 22:13 35.81305 -80.80083 31996 ft 401 kts 296°
2026-04-29 22:13 35.84132 -80.86014 31999 ft 401 kts 296°
2026-04-29 22:14 35.86953 -80.91946 31975 ft 401 kts 296°
2026-04-29 22:14 35.89754 -80.97842 31973 ft 397 kts 296°
2026-04-29 22:15 35.92524 -81.03685 31990 ft 397 kts 296°
2026-04-29 22:15 35.93916 -81.06624 31883 ft 396 kts 296°
2026-04-29 22:15 35.95324 -81.09601 31853 ft 396 kts 296°
2026-04-29 22:16 35.98079 -81.15435 31857 ft 396 kts 296°
2026-04-29 22:16 36.00852 -81.21314 31858 ft 397 kts 296°
2026-04-29 22:17 36.03628 -81.27212 31859 ft 397 kts 296°
2026-04-29 22:17 36.06392 -81.33090 31858 ft 394 kts 296°
2026-04-29 22:18 36.09141 -81.38948 31852 ft 394 kts 296°
2026-04-29 22:18 36.11881 -81.44812 31843 ft 394 kts 295°
2026-04-29 22:19 36.14602 -81.50689 31861 ft 394 kts 295°
2026-04-29 22:19 36.17332 -81.56571 31847 ft 394 kts 295°
2026-04-29 22:20 36.20070 -81.62453 31848 ft 394 kts 295°
2026-04-29 22:20 36.22810 -81.68349 31855 ft 398 kts 295°
2026-04-29 22:21 36.25579 -81.74317 31862 ft 401 kts 295°
2026-04-29 22:21 36.28355 -81.80304 31859 ft 401 kts 295°
2026-04-29 22:22 36.31126 -81.86293 31870 ft 401 kts 295°
2026-04-29 22:22 36.33895 -81.92286 31871 ft 400 kts 295°
2026-04-29 22:23 36.36655 -81.98276 31868 ft 400 kts 295°
2026-04-29 22:23 36.39413 -82.04269 31877 ft 400 kts 295°
2026-04-29 22:24 36.42148 -82.10225 31879 ft 400 kts 295°
2026-04-29 22:24 36.44890 -82.16228 31887 ft 399 kts 294°
2026-04-29 22:25 36.47169 -82.22477 31896 ft 397 kts 289°
2026-04-29 22:25 36.49199 -82.28845 31897 ft 396 kts 288°
2026-04-29 22:26 36.51211 -82.35196 31906 ft 392 kts 287°
2026-04-29 22:26 36.53220 -82.41476 31900 ft 390 kts 288°
2026-04-29 22:27 36.55248 -82.47708 31897 ft 389 kts 288°
2026-04-29 22:27 36.57265 -82.53940 31858 ft 388 kts 288°
2026-04-29 22:28 36.59274 -82.60180 31864 ft 388 kts 288°
2026-04-29 22:28 36.61279 -82.66425 31864 ft 388 kts 288°
2026-04-29 22:29 36.62942 -82.71615 31867 ft 388 kts 288°
2026-04-29 22:29 36.65275 -82.78914 31876 ft 388 kts 288°
2026-04-29 22:30 36.67269 -82.85166 31875 ft 389 kts 288°
2026-04-29 22:30 36.69247 -82.91381 31872 ft 388 kts 288°
2026-04-29 22:31 36.71235 -82.97641 31878 ft 389 kts 288°
2026-04-29 22:31 36.73220 -83.03906 31876 ft 389 kts 288°
2026-04-29 22:32 36.75202 -83.10174 31889 ft 389 kts 288°
2026-04-29 22:32 36.77166 -83.16442 31893 ft 388 kts 288°
2026-04-29 22:33 36.79111 -83.22693 31894 ft 386 kts 288°
2026-04-29 22:33 36.81057 -83.28920 31893 ft 386 kts 288°
2026-04-29 22:34 36.83012 -83.35168 31894 ft 386 kts 287°
2026-04-29 22:34 36.84965 -83.41415 31896 ft 386 kts 287°
2026-04-29 22:35 36.86916 -83.47665 31899 ft 386 kts 287°
2026-04-29 22:35 36.88861 -83.53913 31919 ft 386 kts 288°
2026-04-29 22:36 36.90802 -83.60156 31910 ft 385 kts 287°
2026-04-29 22:36 36.92732 -83.66384 31908 ft 384 kts 287°
2026-04-29 22:37 36.94661 -83.72619 31926 ft 384 kts 287°
2026-04-29 22:37 36.96585 -83.78855 31942 ft 385 kts 287°
2026-04-29 22:38 36.98183 -83.84040 31950 ft 385 kts 287°
2026-04-29 22:38 37.00103 -83.90288 31963 ft 385 kts 287°
2026-04-29 22:39 37.02016 -83.96522 31978 ft 383 kts 287°
2026-04-29 22:39 37.03919 -84.02738 31981 ft 382 kts 287°
2026-04-29 22:40 37.05818 -84.08958 31979 ft 382 kts 287°
2026-04-29 22:40 37.07751 -84.15163 31982 ft 384 kts 289°
2026-04-29 22:41 37.10054 -84.21208 31995 ft 385 kts 291°
2026-04-29 22:41 37.11256 -84.24210 31832 ft 384 kts 291°
2026-04-29 22:41 37.12450 -84.27181 31060 ft 379 kts 291°
2026-04-29 22:41 37.13635 -84.30140 30342 ft 381 kts 291°
2026-04-29 22:42 37.14821 -84.33115 29638 ft 383 kts 291°
2026-04-29 22:42 37.16011 -84.36116 29016 ft 387 kts 291°
2026-04-29 22:42 37.17212 -84.39149 28441 ft 388 kts 291°
2026-04-29 22:42 37.18409 -84.42172 27885 ft 387 kts 291°
2026-04-29 22:43 37.19602 -84.45185 27352 ft 385 kts 292°
2026-04-29 22:43 37.20790 -84.48191 26820 ft 383 kts 292°
2026-04-29 22:43 37.21969 -84.51179 26296 ft 382 kts 292°
2026-04-29 22:43 37.23145 -84.54161 25771 ft 380 kts 292°
2026-04-29 22:44 37.24311 -84.57123 25258 ft 379 kts 292°
2026-04-29 22:44 37.25477 -84.60087 24737 ft 378 kts 292°
2026-04-29 22:44 37.26638 -84.63042 24197 ft 377 kts 292°
2026-04-29 22:44 37.27792 -84.65982 23696 ft 375 kts 292°
2026-04-29 22:45 37.28945 -84.68923 23139 ft 374 kts 292°
2026-04-29 22:45 37.30087 -84.71836 22591 ft 371 kts 292°
2026-04-29 22:45 37.31291 -84.74686 22049 ft 370 kts 298°
2026-04-29 22:45 37.32835 -84.77281 21501 ft 371 kts 305°
2026-04-29 22:46 37.34550 -84.79688 20942 ft 369 kts 308°
2026-04-29 22:46 37.36309 -84.82017 20417 ft 366 kts 308°
2026-04-29 22:46 37.38066 -84.84319 19876 ft 363 kts 308°
2026-04-29 22:46 37.39775 -84.86569 19347 ft 360 kts 308°
2026-04-29 22:47 37.41487 -84.88841 18818 ft 356 kts 308°
2026-04-29 22:47 37.43175 -84.91097 18276 ft 353 kts 308°
2026-04-29 22:47 37.44908 -84.93278 17722 ft 352 kts 311°
2026-04-29 22:47 37.46736 -84.95344 17169 ft 352 kts 313°
2026-04-29 22:48 37.48591 -84.97355 16672 ft 351 kts 314°
2026-04-29 22:48 37.50450 -84.99348 16311 ft 350 kts 314°
2026-04-29 22:48 37.52304 -85.01337 16072 ft 350 kts 314°
2026-04-29 22:48 37.54105 -85.03264 15951 ft 328 kts 314°
2026-04-29 22:49 37.55807 -85.05087 15734 ft 316 kts 313°
2026-04-29 22:49 37.57565 -85.06738 15345 ft 319 kts 324°
2026-04-29 22:49 37.59618 -85.07884 14823 ft 326 kts 332°
2026-04-29 22:49 37.61772 -85.08780 14313 ft 326 kts 335°
2026-04-29 22:50 37.63934 -85.09598 13763 ft 323 kts 336°
2026-04-29 22:50 37.66087 -85.10401 13287 ft 320 kts 336°
2026-04-29 22:50 37.68216 -85.11203 13018 ft 321 kts 336°
2026-04-29 22:50 37.70298 -85.12162 12927 ft 314 kts 327°
2026-04-29 22:51 37.72076 -85.13676 12812 ft 304 kts 310°
2026-04-29 22:51 37.73291 -85.15791 12657 ft 296 kts 292°
2026-04-29 22:51 37.74153 -85.20784 11839 ft 292 kts 275°
2026-04-29 22:52 37.74347 -85.23333 11379 ft 291 kts 275°
2026-04-29 22:52 37.74539 -85.25872 10991 ft 290 kts 275°
2026-04-29 22:52 37.74702 -85.28411 10782 ft 289 kts 273°
2026-04-29 22:52 37.74818 -85.30868 10681 ft 272 kts 272°
2026-04-29 22:53 37.74921 -85.33195 10562 ft 258 kts 272°
2026-04-29 22:53 37.75021 -85.35416 10292 ft 253 kts 272°
2026-04-29 22:53 37.75122 -85.37625 9881 ft 250 kts 272°
2026-04-29 22:53 37.75223 -85.39805 9402 ft 248 kts 272°
2026-04-29 22:54 37.75356 -85.41972 8958 ft 247 kts 276°
2026-04-29 22:54 37.75619 -85.44115 8534 ft 247 kts 279°
2026-04-29 22:54 37.75920 -85.46250 8153 ft 246 kts 280°
2026-04-29 22:54 37.76229 -85.48375 7777 ft 245 kts 281°
2026-04-29 22:55 37.76539 -85.50480 7406 ft 243 kts 281°
2026-04-29 22:55 37.76849 -85.52578 7103 ft 241 kts 281°
2026-04-29 22:55 37.77241 -85.54632 7001 ft 242 kts 291°
2026-04-29 22:55 37.78142 -85.56421 6922 ft 243 kts 308°
2026-04-29 22:56 37.79302 -85.57987 6798 ft 244 kts 312°
2026-04-29 22:56 37.80505 -85.59513 6559 ft 246 kts 313°
2026-04-29 22:56 37.81715 -85.61031 6195 ft 244 kts 313°
2026-04-29 22:56 37.82922 -85.62490 6008 ft 239 kts 320°
2026-04-29 22:57 37.84432 -85.63430 5929 ft 247 kts 337°
2026-04-29 22:57 37.86084 -85.64082 5557 ft 248 kts 340°
2026-04-29 22:57 37.87737 -85.64673 5286 ft 246 kts 341°
2026-04-29 22:57 37.89394 -85.65232 5079 ft 247 kts 342°
2026-04-29 22:58 37.91061 -85.65790 4892 ft 248 kts 342°
2026-04-29 22:58 37.92713 -85.66341 4671 ft 242 kts 343°
2026-04-29 22:58 37.94312 -85.66869 4478 ft 234 kts 343°
2026-04-29 22:58 37.95866 -85.67380 4263 ft 227 kts 343°
2026-04-29 22:59 37.97377 -85.67877 4076 ft 222 kts 343°
2026-04-29 22:59 37.98836 -85.68357 3866 ft 217 kts 343°
2026-04-29 22:59 38.00284 -85.68832 3605 ft 214 kts 342°
2026-04-29 22:59 38.01693 -85.69293 3368 ft 204 kts 343°
2026-04-29 23:00 38.03028 -85.69732 3099 ft 193 kts 341°
2026-04-29 23:00 38.04295 -85.70150 2864 ft 182 kts 342°
2026-04-29 23:00 38.05480 -85.70536 2608 ft 170 kts 341°
2026-04-29 23:00 38.06615 -85.70908 2396 ft 167 kts 342°
2026-04-29 23:01 38.07735 -85.71276 2203 ft 165 kts 341°
2026-04-29 23:01 38.08800 -85.71623 1934 ft 150 kts 342°
2026-04-29 23:01 38.09789 -85.71947 1761 ft 145 kts 342°
2026-04-29 23:01 38.10765 -85.72270 1599 ft 146 kts 342°
2026-04-29 23:02 38.11760 -85.72604 1403 ft 148 kts 342°
2026-04-29 23:02 38.12744 -85.72932 1170 ft 144 kts 342°
2026-04-29 23:02 38.13692 -85.73235 970 ft 139 kts 342°
2026-04-29 23:02 38.14679 -85.73535 815 ft 147 kts 341°
2026-04-29 23:03 38.15641 -85.73868 584 ft 143 kts 342°
2026-04-29 23:03 38.16577 -85.74177 489 ft 124 kts 346°
2026-04-29 23:03 38.17266 -85.74405 488 ft 80 kts 345°
2026-04-29 23:03 38.17588 -85.74467 492 ft 29 kts 16°
2026-04-29 23:04 38.17656 -85.74340 489 ft 17 kts 72°
2026-04-29 23:04 38.17623 -85.74265 494 ft 10 kts 157°
2026-04-29 23:04 38.17543 -85.74237 490 ft 12 kts 165°
2026-04-29 23:04 38.17464 -85.74211 485 ft 11 kts 166°
2026-04-29 23:05 38.17386 -85.74185 490 ft 14 kts 165°
2026-04-29 23:05 38.17271 -85.74147 491 ft 20 kts 165°
2026-04-29 23:05 38.17124 -85.74098 486 ft 22 kts 165°
2026-04-29 23:05 38.16984 -85.74053 490 ft 20 kts 165°
2026-04-29 23:06 38.16875 -85.74013 490 ft 11 kts 153°
2026-04-29 23:06 38.16856 -85.73977 487 ft 3 kts 110°
2026-04-29 23:06 38.16841 -85.73927 488 ft 9 kts 110°
2026-04-29 23:06 38.16814 -85.73837 492 ft 10 kts 110°
2026-04-29 23:07 38.16808 -85.73821 486 ft 0 kts 127°
2026-04-29 23:07 38.16803 -85.73819 486 ft 1 kts 145°
2026-04-29 23:07 38.16798 -85.73819 486 ft 1 kts 168°
2026-04-29 23:07 38.16786 -85.73820 491 ft 3 kts 180°
2026-04-29 23:08 38.16754 -85.73832 492 ft 6 kts 200°
2026-04-29 23:08 38.16746 -85.73836 491 ft 0 kts 200°